"Sample Date","Sample Time","Sensor Name","Sample Value","Units","Flow Rate","Sample Interval","Sample Volume","Laser Status","Number Channels","Micron Size 0","Counts/Channel 0","Micron Size 1","Counts/Channel 1","Micron Size 2","Counts/Channel 2","Micron Size 3","Counts/Channel 3","Micron Size 4","Counts/Channel 4","Micron Size 5","Counts/Channel 5","Micron Size 6","Counts/Channel 6","Micron Size 7","Counts/Channel 7","Micron Size 8","Counts/Channel 8","Micron Size 9","Counts/Channel 9","Micron Size 10","Counts/Channel 10","Micron Size 11","Counts/Channel 11","Micron Size 12","Counts/Channel 12","Micron Size 13","Counts/Channel 13","Micron Size 14","Counts/Channel 14","Micron Size 15","Counts/Channel 15","Micron Size 16","Counts/Channel 16","Micron Size 17","Counts/Channel 17","Micron Size 18","Counts/Channel 18","Micron Size 19","Counts/Channel 19","Micron Size 20","Counts/Channel 20","Micron Size 21","Counts/Channel 21","Micron Size 22","Counts/Channel 22","Micron Size 23","Counts/Channel 23","Micron Size 24","Counts/Channel 24","Micron Size 25","Counts/Channel 25","Micron Size 26","Counts/Channel 26","Micron Size 27","Counts/Channel 27","Micron Size 28","Counts/Channel 28","Micron Size 29","Counts/Channel 29","Micron Size 30","Counts/Channel 30","Micron Size 31","Counts/Channel 31"
"07/11/06","03:00:02","AMMA06",95691.000,"cc",27934.908,6.00,2793.491,1,6,0.100,45346.000,0.200,31157.000,0.300,14878.000,0.500,3494.000,1.000,814.000,5.000,2.000
"07/11/06","03:00:08","AMMA06",95007.000,"cc",28397.418,6.00,2839.742,1,6,0.100,43881.000,0.200,31519.000,0.300,14956.000,0.500,3664.000,1.000,987.000,5.000,0
"07/11/06","03:00:14","AMMA06",101127.000,"cc",28533.461,6.00,2853.346,1,6,0.100,49576.000,0.200,32060.000,0.300,15160.000,0.500,3499.000,1.000,832.000,5.000,0
"07/11/06","03:00:20","AMMA06",89274.000,"cc",28430.809,6.00,2843.081,1,6,0.100,41317.000,0.200,29819.000,0.300,14133.000,0.500,3354.000,1.000,650.000,5.000,1.000
"07/11/06","03:00:26","AMMA06",86394.000,"cc",28334.287,6.00,2833.429,1,6,0.100,39519.000,0.200,29062.000,0.300,14015.000,0.500,3170.000,1.000,628.000,5.000,0
"07/11/06","03:00:32","AMMA06",84580.000,"cc",28251.315,6.00,2825.132,1,6,0.100,38512.000,0.200,28676.000,0.300,13545.000,0.500,3248.000,1.000,599.000,5.000,0
"07/11/06","03:00:38","AMMA06",84963.000,"cc",28330.982,6.00,2833.098,1,6,0.100,39107.000,0.200,28705.000,0.300,13535.000,0.500,3037.000,1.000,579.000,5.000,0
"07/11/06","03:00:44","AMMA06",84633.000,"cc",28351.805,6.00,2835.181,1,6,0.100,39300.000,0.200,28263.000,0.300,13316.000,0.500,3121.000,1.000,632.000,5.000,1.000
"07/11/06","03:00:50","AMMA06",84976.000,"cc",28322.738,6.00,2832.274,1,6,0.100,39396.000,0.200,28605.000,0.300,13250.000,0.500,3134.000,1.000,591.000,5.000,0
"07/11/06","03:00:56","AMMA06",84809.000,"cc",28275.592,6.00,2827.559,1,6,0.100,39293.000,0.200,28566.000,0.300,13298.000,0.500,3074.000,1.000,578.000,5.000,0
"07/11/06","03:01:02","AMMA06",83757.000,"cc",28302.910,6.00,2830.291,1,6,0.100,38754.000,0.200,28385.000,0.300,13094.000,0.500,3013.000,1.000,511.000,5.000,0
"07/11/06","03:01:08","AMMA06",83628.000,"cc",28312.186,6.00,2831.219,1,6,0.100,38822.000,0.200,28568.000,0.300,12714.000,0.500,2924.000,1.000,600.000,5.000,0
"07/11/06","03:01:14","AMMA06",84297.000,"cc",28311.900,6.00,2831.190,1,6,0.100,39129.000,0.200,28869.000,0.300,12899.000,0.500,2811.000,1.000,589.000,5.000,0
"07/11/06","03:01:20","AMMA06",83144.000,"cc",28327.647,6.00,2832.765,1,6,0.100,38836.000,0.200,28725.000,0.300,12268.000,0.500,2766.000,1.000,549.000,5.000,0
"07/11/06","03:01:26","AMMA06",83011.000,"cc",28355.029,6.00,2835.503,1,6,0.100,39426.000,0.200,28579.000,0.300,12081.000,0.500,2465.000,1.000,460.000,5.000,0
"07/11/06","03:01:32","AMMA06",83538.000,"cc",28333.574,6.00,2833.358,1,6,0.100,39687.000,0.200,28938.000,0.300,11762.000,0.500,2565.000,1.000,586.000,5.000,0
"07/11/06","03:01:38","AMMA06",84395.000,"cc",28297.070,6.00,2829.707,1,6,0.100,40483.000,0.200,29088.000,0.300,11774.000,0.500,2482.000,1.000,568.000,5.000,0
"07/11/06","03:01:44","AMMA06",85355.000,"cc",28311.518,6.00,2831.152,1,6,0.100,41127.000,0.200,29346.000,0.300,11715.000,0.500,2543.000,1.000,624.000,5.000,0
"07/11/06","03:01:50","AMMA06",142350.000,"cc",27874.086,6.00,2787.409,1,6,0.100,119039.000,0.200,15538.000,0.300,6067.000,0.500,1318.000,1.000,380.000,5.000,8.000
"07/11/06","03:01:56","AMMA06",191476.000,"cc",26501.022,6.00,2650.102,1,6,0.100,191476.000,0.200,0,0.300,0,0.500,0,1.000,0,5.000,0
"07/11/06","03:02:02","AMMA06",177559.000,"cc",26846.977,6.00,2684.698,1,6,0.100,177559.000,0.200,0,0.300,0,0.500,0,1.000,0,5.000,0
"07/11/06","03:02:08","AMMA06",179019.000,"cc",27534.568,6.00,2753.457,1,6,0.100,179018.000,0.200,1.000,0.300,0,0.500,0,1.000,0,5.000,0
"07/11/06","03:02:14","AMMA06",132978.000,"cc",27879.147,6.00,2787.915,1,6,0.100,132973.000,0.200,5.000,0.300,0,0.500,0,1.000,0,5.000,0
"07/11/06","03:02:20","AMMA06",265057.000,"cc",27838.981,6.00,2783.898,1,6,0.100,249686.000,0.200,15371.000,0.300,0,0.500,0,1.000,0,5.000,0
"07/11/06","03:02:26","AMMA06",179522.000,"cc",27886.598,6.00,2788.660,1,6,0.100,176761.000,0.200,2761.000,0.300,0,0.500,0,1.000,0,5.000,0
"07/11/06","03:02:32","AMMA06",297056.000,"cc",27957.107,6.00,2795.711,1,6,0.100,297054.000,0.200,2.000,0.300,0,0.500,0,1.000,0,5.000,0
"07/11/06","03:02:38","AMMA06",263539.000,"cc",27915.260,6.00,2791.526,1,6,0.100,263539.000,0.200,0,0.300,0,0.500,0,1.000,0,5.000,0
"07/11/06","03:02:44","AMMA06",193376.000,"cc",28057.779,6.00,2805.778,1,6,0.100,193376.000,0.200,0,0.300,0,0.500,0,1.000,0,5.000,0
"07/11/06","03:02:50","AMMA06",240771.000,"cc",28172.967,6.00,2817.297,1,6,0.100,240771.000,0.200,0,0.300,0,0.500,0,1.000,0,5.000,0
"07/11/06","03:02:56","AMMA06",259541.000,"cc",28256.102,6.00,2825.610,1,6,0.100,259539.000,0.200,2.000,0.300,0,0.500,0,1.000,0,5.000,0
"07/11/06","03:03:02","AMMA06",268183.000,"cc",28218.191,6.00,2821.819,1,6,0.100,268178.000,0.200,5.000,0.300,0,0.500,0,1.000,0,5.000,0
"07/11/06","03:03:08","AMMA06",244559.000,"cc",28317.254,6.00,2831.726,1,6,0.100,244546.000,0.200,13.000,0.300,0,0.500,0,1.000,0,5.000,0
"07/11/06","03:03:14","AMMA06",153267.000,"cc",28388.648,6.00,2838.865,1,6,0.100,153242.000,0.200,25.000,0.300,0,0.500,0,1.000,0,5.000,0
"07/11/06","03:03:20","AMMA06",151940.000,"cc",28482.145,6.00,2848.215,1,6,0.100,151907.000,0.200,33.000,0.300,0,0.500,0,1.000,0,5.000,0
"07/11/06","03:03:26","AMMA06",197632.000,"cc",28627.469,6.00,2862.747,1,6,0.100,197603.000,0.200,29.000,0.300,0,0.500,0,1.000,0,5.000,0
"07/11/06","03:03:32","AMMA06",175822.000,"cc",28893.242,6.00,2889.325,1,6,0.100,175809.000,0.200,13.000,0.300,0,0.500,0,1.000,0,5.000,0
"07/11/06","03:03:38","AMMA06",155148.000,"cc",28897.654,6.00,2889.766,1,6,0.100,155130.000,0.200,18.000,0.300,0,0.500,0,1.000,0,5.000,0
"07/11/06","03:03:44","AMMA06",134363.000,"cc",29100.000,6.00,2910.000,1,6,0.100,134363.000,0.200,0,0.300,0,0.500,0,1.000,0,5.000,0
"07/11/06","03:03:50","AMMA06",239101.000,"cc",29616.922,6.00,2961.692,1,6,0.100,239060.000,0.200,41.000,0.300,0,0.500,0,1.000,0,5.000,0
"07/11/06","03:03:56","AMMA06",265561.000,"cc",29774.219,6.00,2977.422,1,6,0.100,261167.000,0.200,4394.000,0.300,0,0.500,0,1.000,0,5.000,0
"07/11/06","03:04:02","AMMA06",301579.000,"cc",29521.990,6.00,2952.199,1,6,0.100,268483.000,0.200,33096.000,0.300,0,0.500,0,1.000,0,5.000,0
"07/11/06","03:04:08","AMMA06",286508.000,"cc",28862.615,6.00,2886.262,1,6,0.100,245648.000,0.200,40860.000,0.300,0,0.500,0,1.000,0,5.000,0
"07/11/06","03:04:14","AMMA06",313471.000,"cc",28460.506,6.00,2846.051,1,6,0.100,275012.000,0.200,38459.000,0.300,0,0.500,0,1.000,0,5.000,0
"07/11/06","03:04:20","AMMA06",322286.000,"cc",28324.869,6.00,2832.487,1,6,0.100,281790.000,0.200,40496.000,0.300,0,0.500,0,1.000,0,5.000,0
"07/11/06","03:04:26","AMMA06",252652.000,"cc",28346.490,6.00,2834.649,1,6,0.100,210490.000,0.200,42162.000,0.300,0,0.500,0,1.000,0,5.000,0
"07/11/06","03:04:32","AMMA06",275108.000,"cc",28309.654,6.00,2830.966,1,6,0.100,233668.000,0.200,41440.000,0.300,0,0.500,0,1.000,0,5.000,0
"07/11/06","03:04:38","AMMA06",212702.000,"cc",28339.410,6.00,2833.941,1,6,0.100,170461.000,0.200,42241.000,0.300,0,0.500,0,1.000,0,5.000,0
"07/11/06","03:04:44","AMMA06",182919.000,"cc",28256.338,6.00,2825.634,1,6,0.100,140199.000,0.200,42720.000,0.300,0,0.500,0,1.000,0,5.000,0
"07/11/06","03:04:50","AMMA06",131617.000,"cc",28373.385,6.00,2837.339,1,6,0.100,88547.000,0.200,43070.000,0.300,0,0.500,0,1.000,0,5.000,0
"07/11/06","03:04:56","AMMA06",108958.000,"cc",28344.340,6.00,2834.434,1,6,0.100,65419.000,0.200,43539.000,0.300,0,0.500,0,1.000,0,5.000,0
"07/11/06","03:05:02","AMMA06",169626.000,"cc",28259.195,6.00,2825.920,1,6,0.100,126523.000,0.200,43103.000,0.300,0,0.500,0,1.000,0,5.000,0
"07/11/06","03:05:08","AMMA06",146657.000,"cc",28292.178,6.00,2829.218,1,6,0.100,103675.000,0.200,42982.000,0.300,0,0.500,0,1.000,0,5.000,0
"07/11/06","03:05:14","AMMA06",147775.000,"cc",28265.430,6.00,2826.543,1,6,0.100,104608.000,0.200,43167.000,0.300,0,0.500,0,1.000,0,5.000,0
"07/11/06","03:05:20","AMMA06",348799.000,"cc",28367.127,6.00,2836.713,1,6,0.100,305711.000,0.200,43088.000,0.300,0,0.500,0,1.000,0,5.000,0
"07/11/06","03:05:26","AMMA06",319427.000,"cc",28350.938,6.00,2835.094,1,6,0.100,276736.000,0.200,42644.000,0.300,44.000,0.500,3.000,1.000,0,5.000,0
"07/11/06","03:05:32","AMMA06",272229.000,"cc",28344.844,6.00,2834.485,1,6,0.100,228819.000,0.200,33316.000,0.300,8200.000,0.500,1591.000,1.000,303.000,5.000,0
"07/11/06","03:05:38","AMMA06",212565.000,"cc",28285.397,6.00,2828.540,1,6,0.100,169077.000,0.200,30054.000,0.300,10711.000,0.500,2269.000,1.000,454.000,5.000,0
"07/11/06","03:05:44","AMMA06",126882.000,"cc",28265.238,6.00,2826.524,1,6,0.100,83417.000,0.200,29823.000,0.300,10979.000,0.500,2229.000,1.000,434.000,5.000,0
"07/11/06","03:05:50","AMMA06",91215.000,"cc",28377.943,6.00,2837.794,1,6,0.100,47940.000,0.200,29079.000,0.300,11373.000,0.500,2347.000,1.000,476.000,5.000,0
"07/11/06","03:05:56","AMMA06",89864.000,"cc",28294.414,6.00,2829.442,1,6,0.100,44869.000,0.200,29319.000,0.300,11949.000,0.500,2818.000,1.000,909.000,5.000,0
"07/11/06","03:06:02","AMMA06",88344.000,"cc",28319.799,6.00,2831.980,1,6,0.100,43314.000,0.200,29790.000,0.300,11984.000,0.500,2517.000,1.000,739.000,5.000,0
"07/11/06","03:06:08","AMMA06",85671.000,"cc",28354.002,6.00,2835.400,1,6,0.100,41775.000,0.200,29422.000,0.300,11693.000,0.500,2322.000,1.000,459.000,5.000,0
"07/11/06","03:06:14","AMMA06",85730.000,"cc",28313.129,6.00,2831.313,1,6,0.100,41932.000,0.200,29195.000,0.300,11670.000,0.500,2391.000,1.000,542.000,5.000,0
"07/11/06","03:06:20","AMMA06",85598.000,"cc",28331.119,6.00,2833.112,1,6,0.100,41417.000,0.200,29759.000,0.300,11686.000,0.500,2264.000,1.000,472.000,5.000,0
"07/11/06","03:06:26","AMMA06",86152.000,"cc",28308.309,6.00,2830.831,1,6,0.100,41987.000,0.200,29531.000,0.300,11654.000,0.500,2364.000,1.000,616.000,5.000,0
"07/11/06","03:06:32","AMMA06",86324.000,"cc",28298.318,6.00,2829.832,1,6,0.100,41963.000,0.200,29441.000,0.300,11788.000,0.500,2451.000,1.000,681.000,5.000,0
"07/11/06","03:06:38","AMMA06",85748.000,"cc",28298.785,6.00,2829.879,1,6,0.100,41877.000,0.200,29232.000,0.300,11795.000,0.500,2342.000,1.000,502.000,5.000,0
"07/11/06","03:06:44","AMMA06",85155.000,"cc",28301.629,6.00,2830.163,1,6,0.100,41453.000,0.200,29463.000,0.300,11467.000,0.500,2293.000,1.000,479.000,5.000,0
"07/11/06","03:06:50","AMMA06",84928.000,"cc",28303.885,6.00,2830.389,1,6,0.100,41150.000,0.200,29551.000,0.300,11562.000,0.500,2150.000,1.000,515.000,5.000,0
"07/11/06","03:06:58","AMMA06",84180.000,"cc",28352.217,6.00,2835.222,1,6,0.100,40707.000,0.200,29445.000,0.300,11404.000,0.500,2127.000,1.000,497.000,5.000,0
"07/11/06","03:07:04","AMMA06",83297.000,"cc",28313.754,6.00,2831.376,1,6,0.100,40274.000,0.200,29348.000,0.300,11141.000,0.500,2070.000,1.000,463.000,5.000,1.000
"07/11/06","03:07:10","AMMA06",84875.000,"cc",28310.244,6.00,2831.025,1,6,0.100,41099.000,0.200,29504.000,0.300,11405.000,0.500,2198.000,1.000,669.000,5.000,0
"07/11/06","03:07:16","AMMA06",85422.000,"cc",28332.641,6.00,2833.264,1,6,0.100,41546.000,0.200,29355.000,0.300,11318.000,0.500,2411.000,1.000,792.000,5.000,0
"07/11/06","03:07:22","AMMA06",84487.000,"cc",28332.537,6.00,2833.254,1,6,0.100,41172.000,0.200,29623.000,0.300,10895.000,0.500,2137.000,1.000,660.000,5.000,0
"07/11/06","03:07:28","AMMA06",85812.000,"cc",28315.479,6.00,2831.548,1,6,0.100,42017.000,0.200,29515.000,0.300,11134.000,0.500,2345.000,1.000,801.000,5.000,0
"07/11/06","03:07:34","AMMA06",84956.000,"cc",28337.322,6.00,2833.732,1,6,0.100,41643.000,0.200,29590.000,0.300,10807.000,0.500,2168.000,1.000,746.000,5.000,2.000
"07/11/06","03:07:40","AMMA06",85044.000,"cc",28316.152,6.00,2831.616,1,6,0.100,42346.000,0.200,29462.000,0.300,10623.000,0.500,2081.000,1.000,532.000,5.000,0
"07/11/06","03:07:46","AMMA06",84252.000,"cc",28301.783,6.00,2830.179,1,6,0.100,41677.000,0.200,29507.000,0.300,10529.000,0.500,1998.000,1.000,537.000,5.000,4.000
"07/11/06","03:07:52","AMMA06",83384.000,"cc",28328.356,6.00,2832.836,1,6,0.100,41347.000,0.200,29337.000,0.300,10402.000,0.500,1819.000,1.000,479.000,5.000,0
"07/11/06","03:07:58","AMMA06",83855.000,"cc",28301.225,6.00,2830.123,1,6,0.100,41788.000,0.200,29236.000,0.300,10306.000,0.500,1918.000,1.000,606.000,5.000,1.000
"07/11/06","03:08:04","AMMA06",83279.000,"cc",28315.809,6.00,2831.581,1,6,0.100,41760.000,0.200,29001.000,0.300,10216.000,0.500,1872.000,1.000,430.000,5.000,0
"07/11/06","03:08:10","AMMA06",82662.000,"cc",28339.393,6.00,2833.940,1,6,0.100,40920.000,0.200,29404.000,0.300,10155.000,0.500,1767.000,1.000,416.000,5.000,0
"07/11/06","03:08:16","AMMA06",82192.000,"cc",28309.219,6.00,2830.922,1,6,0.100,40837.000,0.200,29128.000,0.300,10021.000,0.500,1795.000,1.000,410.000,5.000,1.000
"07/11/06","03:08:22","AMMA06",82506.000,"cc",28306.123,6.00,2830.613,1,6,0.100,41318.000,0.200,29176.000,0.300,9899.000,0.500,1717.000,1.000,396.000,5.000,0
"07/11/06","03:08:28","AMMA06",83225.000,"cc",28294.127,6.00,2829.413,1,6,0.100,41536.000,0.200,29502.000,0.300,9919.000,0.500,1754.000,1.000,513.000,5.000,1.000
"07/11/06","03:08:34","AMMA06",82771.000,"cc",28323.416,6.00,2832.342,1,6,0.100,41518.000,0.200,29025.000,0.300,10036.000,0.500,1753.000,1.000,438.000,5.000,1.000
"07/11/06","03:08:40","AMMA06",82723.000,"cc",28345.926,6.00,2834.593,1,6,0.100,40928.000,0.200,29525.000,0.300,10097.000,0.500,1772.000,1.000,401.000,5.000,0
"07/11/06","03:08:46","AMMA06",82930.000,"cc",28304.586,6.00,2830.459,1,6,0.100,40981.000,0.200,29337.000,0.300,10325.000,0.500,1803.000,1.000,484.000,5.000,0
"07/11/06","03:08:52","AMMA06",82059.000,"cc",28360.352,6.00,2836.035,1,6,0.100,40875.000,0.200,28883.000,0.300,10152.000,0.500,1689.000,1.000,460.000,5.000,0
"07/11/06","03:08:58","AMMA06",82870.000,"cc",28335.180,6.00,2833.518,1,6,0.100,41077.000,0.200,29471.000,0.300,10126.000,0.500,1746.000,1.000,450.000,5.000,0
"07/11/06","03:09:04","AMMA06",82862.000,"cc",28277.662,6.00,2827.766,1,6,0.100,40805.000,0.200,29436.000,0.300,10342.000,0.500,1822.000,1.000,456.000,5.000,1.000
"07/11/06","03:09:10","AMMA06",83189.000,"cc",28330.641,6.00,2833.064,1,6,0.100,40907.000,0.200,29475.000,0.300,10446.000,0.500,1854.000,1.000,507.000,5.000,0
"07/11/06","03:09:16","AMMA06",82336.000,"cc",28308.779,6.00,2830.878,1,6,0.100,40301.000,0.200,29335.000,0.300,10350.000,0.500,1880.000,1.000,470.000,5.000,0
"07/11/06","03:09:22","AMMA06",82232.000,"cc",28326.494,6.00,2832.650,1,6,0.100,40308.000,0.200,29394.000,0.300,10385.000,0.500,1754.000,1.000,391.000,5.000,0
"07/11/06","03:09:28","AMMA06",81765.000,"cc",28277.959,6.00,2827.796,1,6,0.100,40283.000,0.200,28979.000,0.300,10295.000,0.500,1772.000,1.000,436.000,5.000,0
"07/11/06","03:09:34","AMMA06",81871.000,"cc",28319.588,6.00,2831.959,1,6,0.100,40309.000,0.200,29171.000,0.300,10260.000,0.500,1751.000,1.000,380.000,5.000,0
"07/11/06","03:09:40","AMMA06",82671.000,"cc",28353.930,6.00,2835.393,1,6,0.100,40779.000,0.200,29580.000,0.300,10190.000,0.500,1757.000,1.000,365.000,5.000,0
"07/11/06","03:09:46","AMMA06",82067.000,"cc",28318.555,6.00,2831.856,1,6,0.100,40470.000,0.200,29019.000,0.300,10440.000,0.500,1707.000,1.000,431.000,5.000,0
"07/11/06","03:09:52","AMMA06",82272.000,"cc",28305.074,6.00,2830.508,1,6,0.100,40808.000,0.200,29348.000,0.300,9987.000,0.500,1724.000,1.000,405.000,5.000,0
"07/11/06","03:09:58","AMMA06",82779.000,"cc",28322.037,6.00,2832.204,1,6,0.100,41053.000,0.200,29305.000,0.300,10061.000,0.500,1832.000,1.000,528.000,5.000,0
"07/11/06","03:10:04","AMMA06",82292.000,"cc",28264.219,6.00,2826.422,1,6,0.100,40981.000,0.200,29132.000,0.300,9947.000,0.500,1752.000,1.000,480.000,5.000,0
"07/11/06","03:10:10","AMMA06",82204.000,"cc",28289.170,6.00,2828.917,1,6,0.100,40526.000,0.200,29226.000,0.300,10340.000,0.500,1693.000,1.000,419.000,5.000,0
"07/11/06","03:10:16","AMMA06",82131.000,"cc",28339.859,6.00,2833.986,1,6,0.100,40526.000,0.200,28926.000,0.300,10460.000,0.500,1788.000,1.000,431.000,5.000,0
"07/11/06","03:10:22","AMMA06",82815.000,"cc",28304.676,6.00,2830.468,1,6,0.100,39858.000,0.200,29277.000,0.300,11178.000,0.500,2013.000,1.000,489.000,5.000,0
"07/11/06","03:10:28","AMMA06",85722.000,"cc",28345.846,6.00,2834.585,1,6,0.100,41119.000,0.200,29474.000,0.300,11772.000,0.500,2469.000,1.000,888.000,5.000,0
"07/11/06","03:10:34","AMMA06",83429.000,"cc",28320.984,6.00,2832.099,1,6,0.100,40160.000,0.200,29297.000,0.300,11388.000,0.500,2034.000,1.000,550.000,5.000,0
"07/11/06","03:10:40","AMMA06",82912.000,"cc",28328.193,6.00,2832.820,1,6,0.100,40101.000,0.200,29360.000,0.300,10978.000,0.500,1976.000,1.000,497.000,5.000,0
"07/11/06","03:10:46","AMMA06",82712.000,"cc",28349.981,6.00,2834.998,1,6,0.100,40083.000,0.200,29164.000,0.300,10973.000,0.500,1997.000,1.000,495.000,5.000,0
"07/11/06","03:10:52","AMMA06",83110.000,"cc",28370.787,6.00,2837.079,1,6,0.100,40152.000,0.200,29568.000,0.300,11026.000,0.500,1923.000,1.000,441.000,5.000,0
"07/11/06","03:10:58","AMMA06",83395.000,"cc",28260.719,6.00,2826.072,1,6,0.100,40326.000,0.200,29317.000,0.300,11029.000,0.500,2108.000,1.000,615.000,5.000,0
"07/11/06","03:11:04","AMMA06",84705.000,"cc",28302.244,6.00,2830.225,1,6,0.100,40824.000,0.200,29449.000,0.300,11413.000,0.500,2258.000,1.000,761.000,5.000,0
"07/11/06","03:11:10","AMMA06",84644.000,"cc",28333.223,6.00,2833.323,1,6,0.100,41096.000,0.200,29434.000,0.300,11422.000,0.500,2181.000,1.000,511.000,5.000,0
"07/11/06","03:11:16","AMMA06",85435.000,"cc",28336.084,6.00,2833.609,1,6,0.100,41337.000,0.200,29573.000,0.300,11596.000,0.500,2227.000,1.000,702.000,5.000,0
"07/11/06","03:11:22","AMMA06",83946.000,"cc",28325.166,6.00,2832.517,1,6,0.100,40360.000,0.200,29299.000,0.300,11561.000,0.500,2156.000,1.000,570.000,5.000,0
"07/11/06","03:11:28","AMMA06",84346.000,"cc",28298.061,6.00,2829.806,1,6,0.100,40812.000,0.200,29304.000,0.300,11493.000,0.500,2201.000,1.000,536.000,5.000,0
"07/11/06","03:11:34","AMMA06",84451.000,"cc",28253.885,6.00,2825.389,1,6,0.100,40442.000,0.200,29442.000,0.300,11801.000,0.500,2211.000,1.000,555.000,5.000,0
"07/11/06","03:11:40","AMMA06",85813.000,"cc",28299.887,6.00,2829.989,1,6,0.100,40745.000,0.200,29792.000,0.300,11983.000,0.500,2466.000,1.000,827.000,5.000,0
"07/11/06","03:11:46","AMMA06",86012.000,"cc",28402.859,6.00,2840.286,1,6,0.100,41058.000,0.200,29620.000,0.300,12030.000,0.500,2513.000,1.000,791.000,5.000,0
"07/11/06","03:11:52","AMMA06",83980.000,"cc",28328.793,6.00,2832.879,1,6,0.100,40056.000,0.200,29011.000,0.300,11909.000,0.500,2325.000,1.000,679.000,5.000,0
"07/11/06","03:11:58","AMMA06",85077.000,"cc",28313.002,6.00,2831.300,1,6,0.100,40623.000,0.200,29658.000,0.300,11808.000,0.500,2320.000,1.000,668.000,5.000,0
"07/11/06","03:12:04","AMMA06",83365.000,"cc",28351.615,6.00,2835.162,1,6,0.100,39993.000,0.200,28892.000,0.300,11605.000,0.500,2309.000,1.000,565.000,5.000,1.000
"07/11/06","03:12:10","AMMA06",82902.000,"cc",28184.516,6.00,2818.452,1,6,0.100,40620.000,0.200,27998.000,0.300,11269.000,0.500,2420.000,1.000,586.000,5.000,9.000
"07/11/06","03:12:16","AMMA06",87376.000,"cc",26887.133,6.00,2688.713,1,6,0.100,41277.000,0.200,29941.000,0.300,12601.000,0.500,2807.000,1.000,749.000,5.000,1.000
"07/11/06","03:12:22","AMMA06",90564.000,"cc",27305.846,6.00,2730.585,1,6,0.100,42848.000,0.200,30725.000,0.300,13239.000,0.500,2994.000,1.000,758.000,5.000,0
"07/11/06","03:12:28","AMMA06",88791.000,"cc",27906.158,6.00,2790.616,1,6,0.100,41767.000,0.200,30444.000,0.300,13111.000,0.500,2781.000,1.000,687.000,5.000,1.000
"07/11/06","03:12:34","AMMA06",88931.000,"cc",27990.682,6.00,2799.068,1,6,0.100,41610.000,0.200,30348.000,0.300,13349.000,0.500,2895.000,1.000,729.000,5.000,0
"07/11/06","03:12:40","AMMA06",87942.000,"cc",27999.352,6.00,2799.935,1,6,0.100,41353.000,0.200,30217.000,0.300,12913.000,0.500,2791.000,1.000,668.000,5.000,0
"07/11/06","03:12:46","AMMA06",87474.000,"cc",28046.871,6.00,2804.687,1,6,0.100,40821.000,0.200,29814.000,0.300,13432.000,0.500,2806.000,1.000,601.000,5.000,0
"07/11/06","03:12:52","AMMA06",93414.000,"cc",28006.799,6.00,2800.680,1,6,0.100,43395.000,0.200,31119.000,0.300,14997.000,0.500,3207.000,1.000,696.000,5.000,0
"07/11/06","03:12:58","AMMA06",88769.000,"cc",28029.988,6.00,2802.999,1,6,0.100,40336.000,0.200,30103.000,0.300,14593.000,0.500,3183.000,1.000,554.000,5.000,0
"07/11/06","03:13:04","AMMA06",87663.000,"cc",28108.373,6.00,2810.837,1,6,0.100,39858.000,0.200,30245.000,0.300,14079.000,0.500,2954.000,1.000,527.000,5.000,0
"07/11/06","03:13:10","AMMA06",87752.000,"cc",28077.816,6.00,2807.782,1,6,0.100,40551.000,0.200,29962.000,0.300,13825.000,0.500,2870.000,1.000,544.000,5.000,0
"07/11/06","03:13:16","AMMA06",88272.000,"cc",28180.244,6.00,2818.025,1,6,0.100,41212.000,0.200,30178.000,0.300,13424.000,0.500,2831.000,1.000,627.000,5.000,0
"07/11/06","03:13:22","AMMA06",77309.000,"cc",27764.436,6.00,2776.444,1,6,0.100,39262.000,0.200,24990.000,0.300,10404.000,0.500,2209.000,1.000,425.000,5.000,19.000
"07/11/06","03:13:28","AMMA06",86987.000,"cc",27589.662,6.00,2758.966,1,6,0.100,41388.000,0.200,30123.000,0.300,12410.000,0.500,2606.000,1.000,460.000,5.000,0
"07/11/06","03:13:34","AMMA06",86450.000,"cc",28164.391,6.00,2816.439,1,6,0.100,40669.000,0.200,30034.000,0.300,12810.000,0.500,2523.000,1.000,414.000,5.000,0
"07/11/06","03:13:40","AMMA06",88213.000,"cc",28340.121,6.00,2834.012,1,6,0.100,41956.000,0.200,30195.000,0.300,12836.000,0.500,2657.000,1.000,569.000,5.000,0
"07/11/06","03:13:46","AMMA06",87285.000,"cc",28306.139,6.00,2830.614,1,6,0.100,41752.000,0.200,29893.000,0.300,12629.000,0.500,2470.000,1.000,541.000,5.000,0
"07/11/06","03:13:52","AMMA06",88425.000,"cc",28387.426,6.00,2838.743,1,6,0.100,43058.000,0.200,30061.000,0.300,12532.000,0.500,2299.000,1.000,475.000,5.000,0
"07/11/06","03:13:58","AMMA06",87602.000,"cc",28284.902,6.00,2828.491,1,6,0.100,42621.000,0.200,29759.000,0.300,12527.000,0.500,2249.000,1.000,446.000,5.000,0
"07/11/06","03:14:04","AMMA06",87767.000,"cc",28259.059,6.00,2825.906,1,6,0.100,42477.000,0.200,29809.000,0.300,12855.000,0.500,2168.000,1.000,458.000,5.000,0
"07/11/06","03:14:10","AMMA06",88290.000,"cc",28211.299,6.00,2821.130,1,6,0.100,42941.000,0.200,30420.000,0.300,12135.000,0.500,2246.000,1.000,548.000,5.000,0
"07/11/06","03:14:16","AMMA06",87397.000,"cc",28179.902,6.00,2817.991,1,6,0.100,42582.000,0.200,29448.000,0.300,12583.000,0.500,2262.000,1.000,522.000,5.000,0
"07/11/06","03:14:22","AMMA06",89659.000,"cc",28161.785,6.00,2816.179,1,6,0.100,43044.000,0.200,30010.000,0.300,13070.000,0.500,2671.000,1.000,864.000,5.000,0
"07/11/06","03:14:28","AMMA06",88882.000,"cc",28186.783,6.00,2818.679,1,6,0.100,42987.000,0.200,30237.000,0.300,12654.000,0.500,2378.000,1.000,626.000,5.000,0
"07/11/06","03:14:34","AMMA06",88251.000,"cc",27950.328,6.00,2795.033,1,6,0.100,42431.000,0.200,30251.000,0.300,12722.000,0.500,2330.000,1.000,517.000,5.000,0